Miscellaneous Local Product
Issued by NWS Hastings, NE

Home | Current Version | Previous Version | Text Only | Print | Product List | Glossary On
Versions: 1 2 3 4 5 6 7 8 9 10 11 12 13 14 15 16 17 18 19 20 21 22 23 24 25 26 27 28 29 30 31 32 33 34 35 36 37 38 39 40 41 42 43 44 45 46 47 48 49 50
000
AXUS43 KGID 021302
MISGRI

GID CWA HOURLY WEATHER ROUNDUP
NATIONAL WEATHER SERVICE HASTINGS NE
800 AM CDT MON MAY 02 2016

NOTE: "FAIR" INDICATES FEW OR NO CLOUDS BELOW 12,000 FEET WITH NO
SIGNIFICANT WEATHER AND/OR OBSTRUCTIONS TO VISIBILITY.

...SOUTH CENTRAL NEBRASKA...

CITY           SKY/WX    TMP DP  RH WIND       PRES   REMARKS
GRAND ISLAND   SUNNY     40  35  83 W10       30.18S WCI  33
HASTINGS       SUNNY     42  36  79 NW9       30.18R
KEARNEY        SUNNY     37  34  87 NW9       30.19S WCI  31
ORD            SUNNY     36  33  89 NW5       30.17S WCI  32
YORK           SUNNY     45  39  81 NW10      30.17S
AURORA         PTSUNNY   40  38  92 NW6       30.18S
LEXINGTON      SUNNY     35  32  89 NW7       30.20S WCI  29
HOLDREGE       SUNNY     36  33  90 NW3       30.20R
HEBRON         CLOUDY    47  43  87 NW6       30.17R

...NEBRASKA PANHANDLE...

CITY           SKY/WX    TMP DP  RH WIND       PRES   REMARKS
CHADRON        SUNNY     33  30  88 W5        30.19F WCI  29
ALLIANCE       SUNNY     27  25  92 W6        30.19S WCI  20
SCOTTSBLUFF    SUNNY     33  28  81 NW8       30.23R WCI  26
SIDNEY         SUNNY     31  24  75 W12       30.22S WCI  22

...WESTERN AND NORTH CENTRAL NEBRASKA...

CITY           SKY/WX    TMP DP  RH WIND       PRES   REMARKS
VALENTINE      SUNNY     35  31  85 SW6       30.17S WCI  30
AINSWORTH      SUNNY     38  34  84 W5        30.17S WCI  35
ONEILL         SUNNY     40  35  83 W6        30.17R
BROKEN BOW     SUNNY     35  32  88 CALM      30.18S
IMPERIAL       SUNNY     35  29  78 W9        30.22S WCI  28
NORTH PLATTE   SUNNY     33  30  88 W6        30.20S WCI  28
MCCOOK         SUNNY     37  32  82 W9        30.21S WCI  30

...EASTERN NEBRASKA...

CITY           SKY/WX    TMP DP  RH WIND       PRES   REMARKS
NORFOLK        SUNNY     41  37  86 NW3       30.16S
SO SIOUX CITY  SUNNY     44  39  82 NW5       30.15S
TEKAMAH        SUNNY     45  41  86 N6        30.15R
COLUMBUS       SUNNY     43  32  65 W5        30.17S
ALBION         SUNNY     38  35  87 NW7       30.17S WCI  33
OMAHA EPPLEY   PTSUNNY   47  42  83 N3        30.15R
MILLARD        CLOUDY    47  41  79 CALM      30.15R
LINCOLN        MOSUNNY   50  40  68 NW10      30.17R
NEBRASKA CITY  CLOUDY    48  45  88 N8        30.14S
BEATRICE       CLOUDY    47  44  90 NW5       30.16R
FALLS CITY     CLOUDY    49  46  90 NW7       30.12R

...NORTHERN KANSAS...

CITY           SKY/WX    TMP DP  RH WIND       PRES   REMARKS
GOODLAND       SUNNY     34  29  82 W6        30.23R WCI  29
HILL CITY      SUNNY     42  35  76 NW8       30.21S
NORTON         SUNNY     37  30  75 W10       30.20  WCI  30
PHILLIPSBURG   SUNNY     41  39  93 CALM      30.20S
SMITH CENTER   CLOUDY    43  39  87 NW7       30.20S
BELOIT         CLOUDY    45  41  87 W5        30.18S
HAYS           SUNNY     43  34  70 NW7       30.20S
RUSSELL        CLOUDY    45  41  86 NW8       30.18S
CONCORDIA      CLOUDY    47  43  86 W7        30.17S
SALINA         CLOUDY    49  44  83 NW8       30.18R
TOPEKA         CLOUDY    50  44  80 NW6       30.13R



USA.gov is the U.S. government's official web portal to all federal, state and local government web resources and services.